Total_Precipitation_Accumulation
1.73 1.95 2.14 2.35 2.60 2.82 2.97 3.21 3.47 3.86 4.15 4.51 4.81 5.03 5.21 5.43 5.47 5.38 5.31 5.29 5.27 5.38 5.45 5.20 5.20 5.11 4.99 4.78 4.73 4.63 4.40 4.13 4.11 4.00 3.54 2.94 2.54 2.42 2.29 2.33 2.55 2.57 2.45
1.71 2.08 2.41 2.85 3.08 3.21 3.28 3.50 3.84 4.16 4.36 4.74 5.25 5.72 5.90 6.01 6.00 5.96 6.07 6.10 6.11 6.26 6.30 6.27 6.03 5.83 5.55 5.05 4.70 4.58 4.35 3.98 4.11 4.15 4.10 3.38 2.89 2.38 1.93 2.00 2.06 2.15 2.37
1.94 2.21 2.59 2.92 3.06 3.19 3.32 3.49 3.97 4.42 4.88 5.34 5.92 6.39 6.67 6.67 6.51 6.19 6.27 6.38 6.23 6.33 6.52 6.51 6.29 5.94 5.38 4.81 4.66 4.63 4.46 4.19 4.11 4.04 4.26 3.70 3.12 2.67 2.17 1.89 1.79 1.91 2.04
1.90 2.24 2.48 2.78 2.93 3.06 3.31 3.52 3.95 4.65 5.17 5.49 6.13 6.76 7.00 7.18 7.23 6.98 6.65 6.45 6.20 6.08 6.03 5.87 5.47 5.10 4.74 4.43 4.30 4.36 4.25 4.22 4.02 3.92 3.66 3.41 3.10 2.84 2.45 2.01 1.77 1.81 1.86
1.70 2.05 2.23 2.51 2.84 2.97 3.08 3.32 3.89 4.55 5.28 5.88 6.37 6.96 7.43 7.62 7.54 7.09 6.64 6.11 5.76 5.31 4.87 4.52 4.31 4.24 4.09 3.89 3.76 3.77 3.69 3.52 3.40 3.38 3.36 3.31 3.04 2.68 2.48 2.19 1.98 1.94 1.78
1.54 1.70 1.88 2.18 2.54 2.65 2.89 3.19 3.63 4.36 5.10 5.67 6.21 6.69 7.09 7.20 6.88 6.34 5.81 5.46 5.06 4.51 3.95 3.67 3.47 3.36 3.22 3.03 2.93 2.92 2.95 3.04 3.07 3.14 3.15 3.09 3.00 2.78 2.71 2.53 2.30 2.17 2.05
1.42 1.65 1.79 2.08 2.32 2.43 2.70 3.05 3.59 4.24 4.66 5.13 5.63 5.95 6.15 6.27 6.23 5.89 5.40 5.01 4.53 4.06 3.56 3.13 2.90 2.67 2.50 2.44 2.46 2.45 2.42 2.55 2.66 2.77 2.83 2.81 2.72 2.64 2.71 2.82 2.58 2.33 2.16
1.56 1.79 1.95 2.16 2.37 2.44 2.61 2.93 3.38 3.83 4.06 4.26 4.68 5.03 5.15 5.18 5.04 4.80 4.39 4.08 3.74 3.43 3.12 2.70 2.37 2.16 2.03 1.93 2.04 2.06 2.09 2.16 2.27 2.33 2.54 2.54 2.45 2.54 2.63 2.76 2.86 2.74 2.39
1.64 1.84 2.01 2.14 2.29 2.35 2.51 2.67 2.93 3.14 3.36 3.54 3.76 3.94 3.96 3.86 3.72 3.50 3.24 3.02 2.81 2.53 2.39 2.20 2.01 1.89 1.85 1.85 1.86 1.83 1.83 1.95 2.05 2.11 2.28 2.40 2.39 2.45 2.49 2.62 2.75 2.82 2.62
1.65 1.82 1.90 1.99 2.04 2.00 2.12 2.23 2.45 2.59 2.79 2.88 2.91 2.84 2.83 2.76 2.59 2.40 2.29 2.14 1.96 1.86 1.84 1.79 1.80 1.75 1.70 1.76 1.83 1.73 1.72 1.85 1.88 1.87 1.98 2.08 2.16 2.29 2.35 2.45 2.57 2.63 2.57
1.56 1.63 1.68 1.73 1.74 1.68 1.70 1.80 1.96 2.18 2.32 2.33 2.37 2.31 2.22 2.06 1.93 1.78 1.71 1.64 1.56 1.56 1.58 1.60 1.62 1.64 1.64 1.68 1.69 1.61 1.61 1.68 1.84 1.94 1.98 2.01 2.05 2.13 2.13 2.15 2.20 2.32 2.47
1.54 1.49 1.48 1.51 1.51 1.51 1.49 1.56 1.64 1.75 1.80 1.87 1.87 1.86 1.81 1.72 1.63 1.54 1.47 1.48 1.49 1.48 1.51 1.50 1.49 1.55 1.64 1.69 1.62 1.51 1.49 1.59 1.72 1.84 1.93 1.91 1.86 1.91 1.99 2.04 2.02 2.06 2.22
1.60 1.58 1.54 1.48 1.51 1.61 1.59 1.49 1.53 1.55 1.55 1.59 1.56 1.57 1.65 1.65 1.59 1.57 1.58 1.54 1.49 1.47 1.43 1.37 1.40 1.46 1.51 1.52 1.48 1.41 1.42 1.46 1.54 1.61 1.63 1.66 1.70 1.65 1.67 1.73 1.79 1.79 1.82
1.64 1.72 1.79 1.73 1.62 1.62 1.73 1.62 1.52 1.48 1.53 1.52 1.48 1.41 1.42 1.50 1.54 1.51 1.49 1.44 1.38 1.39 1.42 1.39 1.34 1.32 1.26 1.18 1.15 1.15 1.21 1.25 1.25 1.30 1.30 1.34 1.45 1.47 1.51 1.49 1.56 1.62 1.74
1.79 1.80 1.76 1.75 1.65 1.60 1.70 1.65 1.53 1.46 1.65 1.63 1.59 1.51 1.42 1.43 1.47 1.43 1.38 1.32 1.26 1.17 1.21 1.26 1.19 1.09 0.95 0.83 0.85 0.91 0.95 1.03 1.05 1.08 1.06 1.03 1.17 1.29 1.28 1.18 1.30 1.48 1.64
1.98 1.95 1.89 1.89 1.85 1.74 1.76 1.77 1.69 1.61 1.69 1.76 1.83 1.83 1.73 1.69 1.62 1.48 1.36 1.35 1.33 1.26 1.16 1.10 1.07 0.97 0.77 0.77 0.74 0.82 0.96 1.05 1.02 1.06 1.06 0.97 1.01 1.05 1.01 0.98 1.10 1.32 1.40
2.23 2.19 2.15 2.08 2.06 2.00 1.93 1.92 1.82 1.74 1.75 1.82 1.86 1.83 1.78 1.75 1.71 1.50 1.36 1.38 1.38 1.34 1.28 1.14 1.08 1.06 0.98 0.84 0.70 0.73 0.86 0.98 1.00 1.02 1.02 0.89 0.83 0.94 0.97 0.97 0.98 1.06 1.09
2.20 2.24 2.32 2.25 2.21 2.07 1.95 1.90 1.81 1.83 1.87 1.89 1.86 1.79 1.64 1.62 1.56 1.48 1.45 1.41 1.36 1.33 1.26 1.16 1.08 1.00 0.84 0.71 0.61 0.62 0.73 0.89 0.95 0.96 0.98 1.01 0.95 0.88 0.90 0.90 0.94 1.02 1.06
2.27 2.26 2.25 2.18 2.15 2.06 1.98 1.89 1.82 1.85 1.86 1.84 1.74 1.63 1.53 1.50 1.42 1.40 1.34 1.29 1.24 1.22 1.14 1.02 0.97 0.94 0.81 0.61 0.53 0.58 0.74 0.90 0.92 0.90 0.86 0.91 0.93 0.91 0.85 0.89 1.03 1.09 1.10
2.07 2.00 1.85 1.75 1.89 1.99 1.97 1.87 1.78 1.77 1.77 1.58 1.37 1.28 1.31 1.32 1.25 1.19 1.13 1.10 1.12 1.11 1.01 0.89 0.90 0.89 0.86 0.71 0.61 0.63 0.73 0.88 0.88 0.90 0.87 0.82 0.83 0.85 0.84 0.91 1.04 1.10 1.08
1.58 1.51 1.47 1.53 1.65 1.72 1.73 1.74 1.63 1.60 1.51 1.38 1.29 1.24 1.18 1.12 1.11 1.12 1.13 1.07 1.03 1.07 1.07 1.03 0.95 0.86 0.76 0.64 0.58 0.60 0.61 0.74 0.82 0.83 0.89 0.85 0.77 0.75 0.79 0.91 0.97 0.99 0.98
1.22 1.17 1.25 1.37 1.44 1.40 1.40 1.48 1.48 1.40 1.31 1.29 1.25 1.28 1.18 1.01 1.03 1.18 1.15 1.13 1.16 1.16 1.10 1.05 0.96 0.80 0.70 0.57 0.52 0.54 0.57 0.64 0.78 0.86 0.87 0.82 0.76 0.72 0.76 0.85 0.90 0.91 1.00
0.99 1.02 1.04 1.14 1.26 1.29 1.32 1.37 1.33 1.25 1.25 1.31 1.27 1.17 1.07 1.12 1.12 1.16 1.16 1.12 1.11 1.03 0.92 0.86 0.83 0.73 0.64 0.55 0.48 0.50 0.55 0.63 0.70 0.75 0.76 0.73 0.75 0.75 0.88 0.92 0.94 1.03 1.23
0.86 0.95 0.98 0.99 1.08 1.09 1.13 1.22 1.16 1.16 1.29 1.38 1.32 1.18 1.06 1.02 1.03 1.06 1.05 0.98 0.93 0.90 0.83 0.78 0.75 0.69 0.66 0.60 0.55 0.55 0.55 0.57 0.63 0.68 0.70 0.77 0.84 0.88 0.98 1.10 1.20 1.24 1.31
0.88 0.94 0.99 0.99 0.94 0.91 0.96 0.96 0.99 1.13 1.34 1.31 1.17 1.04 0.89 0.84 0.86 0.84 0.81 0.80 0.74 0.70 0.69 0.64 0.62 0.67 0.65 0.57 0.55 0.52 0.50 0.51 0.55 0.59 0.76 0.98 1.05 1.14 1.21 1.25 1.30 1.34 1.27
0.83 0.93 0.91 0.86 0.87 0.91 0.94 0.89 0.87 0.98 1.20 1.19 0.99 0.84 0.73 0.67 0.59 0.59 0.60 0.57 0.54 0.52 0.50 0.50 0.49 0.48 0.48 0.45 0.43 0.44 0.45 0.47 0.53 0.59 0.83 0.96 1.04 1.12 1.17 1.19 1.21 1.25 1.27